Location: North Wawona
(37.5477°N, 119.6446°W)
Time: 01:35:12
(UTC+00:00)

IRS-1D - Pass Details

Date: 03 August 2024
Orbit: 738 x 813 km, 98.8° (Epoch: 08 September)

Event Time Altitude Azimuth Distance (km) Brightness Sun altitude
Rises 12:28:02 0° 4° (N) 3,194 7.2 -7.4°
Reaches altitude 10° 12:30:25 10° 357° (N) 2,274 6.3 -7.0°
Maximum altitude 12:35:02 39° 290° (WNW) 1,133 4.1 -6.2°
Drops below altitude 10° 12:39:41 10° 222° (SW) 2,299 5.4 -5.4°
Enters shadow 12:41:31 - 216° (SW) 2,998 6.0 -5.0°
